Date String (YYYY-MM-DD hh:mm:ss) UTC,Instrument flags,Ambient pressure (hPa),Sample flow (lpm),Bypass flow (lpm),Sample temperature (°C),Ambient temperature (°C),ASC tube jacket temperature (°C),LED temperature (°C),Box temperature (°C),Sample RH (%),Span deviation,Mass concentration (μg/m³),Mass concentration (μg/m³),Mass concentration (μg/m³)
DateTimeUTC,F1_M11,P_M11,Q1_M11,Q2_M11,T1_M11,T2_M11,T3_M11,T4_M11,T5_M11,U1_M11,ZSPAN_M11,X0_M11,X2_M11,X1_M11
2022-12-17 04:00:00,,0821.7,5.01,0.00,21.7,21.4,00.0,30.4,23.5,03.8,0000.0,0003.53,0001.56,0001.27
2022-12-17 04:01:00,,0821.7,4.97,0.00,21.7,21.0,00.0,30.4,23.4,03.6,0000.0,0003.52,0001.56,0001.26
2022-12-17 04:02:00,,0821.7,5.02,0.00,21.6,20.7,00.0,30.4,23.4,03.6,0000.0,0003.57,0001.55,0001.24
2022-12-17 04:03:00,,0821.7,4.97,0.00,21.6,20.4,00.0,30.4,23.3,03.6,0000.0,0003.57,0001.54,0001.24
2022-12-17 04:04:00,,0821.7,5.05,0.00,21.6,20.2,00.0,30.4,23.2,03.7,0000.0,0003.61,0001.55,0001.25
2022-12-17 04:05:00,,0821.7,4.96,0.00,21.6,20.1,00.0,30.4,23.2,03.8,0000.0,0003.54,0001.53,0001.25
2022-12-17 04:06:00,,0821.7,5.04,0.00,21.5,20.0,00.0,30.4,23.2,03.8,0000.0,0003.37,0001.47,0001.23
2022-12-17 04:07:00,,0821.7,4.97,0.00,21.5,20.0,00.0,30.4,23.2,03.8,0000.0,0003.41,0001.45,0001.22
2022-12-17 04:08:00,,0821.8,4.99,0.00,21.6,21.0,00.0,30.4,23.4,03.8,0000.0,0002.68,0001.49,0001.23
2022-12-17 04:09:00,,0821.8,5.02,0.00,21.7,22.0,00.0,30.4,23.7,03.8,0000.0,0002.40,0001.50,0001.24
2022-12-17 04:10:00,,0821.8,4.96,0.00,21.8,21.8,00.0,30.4,23.7,03.7,0000.0,0002.45,0001.53,0001.25
2022-12-17 04:11:00,,0821.7,5.04,0.00,21.8,21.4,00.0,30.5,23.6,03.7,0000.0,0002.48,0001.55,0001.26
2022-12-17 04:12:00,,0821.7,4.97,0.00,21.8,21.0,00.0,30.5,23.5,03.7,0000.0,0002.60,0001.60,0001.29
2022-12-17 04:13:00,,0821.7,5.02,0.00,21.7,20.7,00.0,30.5,23.5,03.7,0000.0,0002.59,0001.64,0001.33
2022-12-17 04:14:00,,0821.7,5.01,0.00,21.7,20.4,00.0,30.5,23.4,03.6,0000.0,0002.47,0001.62,0001.33
2022-12-17 04:15:00,,0821.7,4.96,0.00,21.6,20.2,00.0,30.5,23.3,03.6,0000.0,0002.43,0001.61,0001.32
2022-12-17 04:16:00,,0821.7,5.03,0.00,21.6,20.1,00.0,30.5,23.3,03.7,0000.0,0002.48,0001.63,0001.33
2022-12-17 04:17:00,,0821.7,4.96,0.00,21.6,20.0,00.0,30.5,23.3,03.7,0000.0,0002.50,0001.65,0001.34
2022-12-17 04:18:00,,0821.7,5.05,0.00,21.6,19.9,00.0,30.5,23.2,03.7,0000.0,0002.45,0001.66,0001.35
2022-12-17 04:19:00,,0821.7,4.97,0.00,21.6,20.2,00.0,30.5,23.3,03.8,0000.0,0002.34,0001.63,0001.34
2022-12-17 04:20:00,,0821.8,5.05,0.00,21.7,21.3,00.0,30.4,23.5,03.7,0000.0,0002.26,0001.59,0001.31
2022-12-17 04:21:00,,0821.8,4.96,0.00,21.8,22.0,00.0,30.4,23.7,03.7,0000.0,0002.24,0001.57,0001.29
2022-12-17 04:22:00,,0821.8,5.04,0.00,21.8,21.7,00.0,30.5,23.7,03.7,0000.0,0002.17,0001.55,0001.28
2022-12-17 04:23:00,,0821.8,4.97,0.00,21.8,21.2,00.0,30.5,23.6,03.7,0000.0,0002.05,0001.51,0001.26
2022-12-17 04:24:00,,0821.7,4.98,0.00,21.8,20.9,00.0,30.6,23.5,03.7,0000.0,0003.24,0001.49,0001.24
2022-12-17 04:25:00,,0821.7,5.02,0.00,21.7,20.6,00.0,30.6,23.5,03.8,0000.0,0003.95,0001.51,0001.24
2022-12-17 04:26:00,,0821.7,4.96,0.00,21.7,20.4,00.0,30.6,23.4,03.7,0000.0,0003.93,0001.49,0001.23
2022-12-17 04:27:00,,0821.7,5.04,0.00,21.7,20.3,00.0,30.6,23.4,03.8,0000.0,0004.98,0001.48,0001.22
2022-12-17 04:28:00,,0821.7,4.96,0.00,21.7,20.2,00.0,30.6,23.4,03.8,0000.0,0005.14,0001.49,0001.21
2022-12-17 04:29:00,,0821.8,5.05,0.00,21.7,20.2,00.0,30.5,23.3,03.8,0000.0,0005.13,0001.48,0001.20
2022-12-17 04:30:00,,0821.8,4.96,0.00,21.6,20.2,00.0,30.5,23.3,03.8,0000.0,0005.23,0001.49,0001.20
2022-12-17 04:31:00,,0821.7,5.05,0.00,21.7,21.2,00.0,30.5,23.5,03.7,0000.0,0005.33,0001.50,0001.20
2022-12-17 04:32:00,,0821.8,4.96,0.00,21.8,22.1,00.0,30.5,23.8,03.7,0000.0,0005.30,0001.49,0001.20
2022-12-17 04:33:00,,0821.8,5.04,0.00,21.9,21.9,00.0,30.6,23.8,03.7,0000.0,0005.32,0001.50,0001.21
2022-12-17 04:34:00,,0821.7,4.98,0.00,21.9,21.5,00.0,30.6,23.8,03.8,0000.0,0005.37,0001.50,0001.21
2022-12-17 04:35:00,,0821.7,4.97,0.00,21.9,21.1,00.0,30.6,23.7,03.8,0000.0,0005.14,0001.50,0001.20
2022-12-17 04:36:00,,0821.7,5.05,0.00,21.9,20.9,00.0,30.6,23.6,03.8,0000.0,0003.95,0001.47,0001.20
2022-12-17 04:37:00,,0821.7,4.96,0.00,21.8,20.6,00.0,30.6,23.5,03.8,0000.0,0003.85,0001.50,0001.23
2022-12-17 04:38:00,,0821.7,5.03,0.00,21.8,20.4,00.0,30.6,23.5,03.8,0000.0,0003.13,0001.50,0001.26
2022-12-17 04:39:00,,0821.7,4.97,0.00,21.8,20.3,00.0,30.6,23.4,03.9,0000.0,0002.64,0001.51,0001.27
2022-12-17 04:40:00,,0821.6,5.04,0.00,21.7,20.2,00.0,30.6,23.4,03.9,0000.0,0002.62,0001.51,0001.28
2022-12-17 04:41:00,,0821.6,4.96,0.00,21.7,20.1,00.0,30.6,23.3,03.9,0000.0,0002.57,0001.49,0001.28
2022-12-17 04:42:00,,0821.6,5.03,0.00,21.7,20.4,00.0,30.6,23.4,03.9,0000.0,0002.41,0001.48,0001.29
2022-12-17 04:43:00,,0821.6,4.98,0.00,21.8,21.4,00.0,30.5,23.6,03.8,0000.0,0002.45,0001.51,0001.31
2022-12-17 04:44:00,,0821.6,4.99,0.00,21.9,22.1,00.0,30.6,23.8,03.8,0000.0,0002.47,0001.53,0001.33
2022-12-17 04:45:00,,0821.7,5.03,0.00,21.9,21.7,00.0,30.6,23.8,03.7,0000.0,0002.46,0001.52,0001.32
2022-12-17 04:46:00,,0821.7,4.98,0.00,21.9,21.1,00.0,30.7,23.6,03.7,0000.0,0002.31,0001.50,0001.31
2022-12-17 04:47:00,,0821.5,4.96,0.00,21.8,20.6,00.0,30.7,23.4,03.7,0000.0,0002.10,0001.50,0001.31
2022-12-17 04:48:00,,0821.6,5.02,0.00,21.7,20.1,00.0,30.6,23.3,03.8,0000.0,0002.01,0001.46,0001.28
2022-12-17 04:49:00,,0821.5,5.01,0.00,21.7,19.7,00.0,30.6,23.2,03.8,0000.0,0001.99,0001.43,0001.25
2022-12-17 04:50:00,,0821.6,4.97,0.00,21.6,19.5,00.0,30.6,23.1,03.8,0000.0,0002.12,0001.43,0001.24
2022-12-17 04:51:00,,0821.5,5.04,0.00,21.5,19.3,00.0,30.6,23.0,03.8,0000.0,0002.10,0001.41,0001.22
2022-12-17 04:52:00,,0821.6,4.96,0.00,21.5,19.6,00.0,30.5,23.0,03.9,0000.0,0002.36,0001.42,0001.21
2022-12-17 04:53:00,,0821.6,5.03,0.00,21.6,20.9,00.0,30.5,23.3,03.9,0000.0,0002.92,0001.40,0001.19
2022-12-17 04:54:00,,0821.5,4.96,0.00,21.7,21.7,00.0,30.5,23.6,03.8,0000.0,0003.86,0001.37,0001.17
2022-12-17 04:55:00,,0821.5,5.05,0.00,21.7,21.5,00.0,30.5,23.6,03.8,0000.0,0004.23,0001.32,0001.14
2022-12-17 04:56:00,,0821.5,4.95,0.00,21.7,21.2,00.0,30.5,23.5,03.8,0000.0,0004.22,0001.32,0001.14
2022-12-17 04:57:00,,0821.4,5.06,0.00,21.7,20.8,00.0,30.6,23.4,03.9,0000.0,0004.65,0001.35,0001.14
2022-12-17 04:58:00,,0821.4,4.97,0.00,21.7,20.5,00.0,30.6,23.3,03.9,0000.0,0004.76,0001.38,0001.14
2022-12-17 04:59:00,,0821.4,5.04,0.00,21.6,20.1,00.0,30.5,23.2,03.8,0000.0,0004.81,0001.41,0001.15
